Regional Weather Roundup
Issued by NWS

Home | Current Version | Previous Version | Graphics & Text | Print | Product List | Glossary On
Versions: 1 2 3 4 5 6 7 8 9 10 11 12 13 14 15 16 17 18 19 20 21 22 23 24 25 26 27 28 29 30 31 32 33 34 35 36 37 38 39 40 41 42 43 44 45 46 47 48 49 50
000
ASUS45 KPSR 281800
RWRAZ

PRELIMINARY ARIZONA REGIONAL HOURLY WEATHER ROUNDUP
NATIONAL WEATHER SERVICE PHOENIX AZ
1100 AM MST THU AUG 28 2014

NOTE: FAIR INDICATES FEW OR NO CLOUDS BELOW 12,000 FEET WITH NO
SIGNIFICANT WEATHER AND/OR OBSTRUCTIONS TO VISIBILITY.

AZZ001>003-036-281900-
NORTHWEST ARIZONA

CITY           SKY/WX    TMP DP  RH WIND       PRES   REMARKS
KINGMAN        SUNNY     89  38  16 N5        30.15F
6HR MIN TEMP:  59; 6HR MAX TEMP:  89;

$$

AZZ004>008-015-016-018-281900-
NORTH CENTRAL ARIZONA

CITY           SKY/WX    TMP DP  RH WIND       PRES   REMARKS
GRAND CANYON   SUNNY     73  37  27 NW8       30.37S
WILLIAMS       SUNNY     72  43  35 NW12      30.42F
PRESCOTT       SUNNY     78  49  35 N9        30.25F
6HR MIN TEMP:  54; 6HR MAX TEMP:  78;

FLAGSTAFF      SUNNY     70  39  32 VRB3      30.37F
6HR MIN TEMP:  44; 6HR MAX TEMP:  70;

PAYSON         SUNNY     81  41  24 NE10      30.25F
PAGE           SUNNY     78  45  30 CALM      30.21F
6HR MIN TEMP:  63; 6HR MAX TEMP:  79;

$$

AZZ009>014-017-281900-
NORTHEAST ARIZONA

CITY           SKY/WX    TMP DP  RH WIND       PRES   REMARKS
WINSLOW        NOT AVBL
SAINT JOHNS    SUNNY     74  51  44 NW7       30.27F
6HR MIN TEMP:  55; 6HR MAX TEMP:  75;

$$

AZZ023-281900-
GREATER PHOENIX AREA

CITY           SKY/WX    TMP DP  RH WIND       PRES   REMARKS
PHOENIX        MOSUNNY   97  58  27 W5        29.93F
6HR MIN TEMP:  83; 6HR MAX TEMP:  98;

GLENDALE       MOSUNNY   95  54  24 NW5       29.94F
DEER VALLEY    SUNNY     94  55  26 CALM      29.95F
6HR MIN TEMP:  79; 6HR MAX TEMP:  95;

SCOTTSDALE     SUNNY     93  59  31 S6        29.97F
6HR MIN TEMP:  79; 6HR MAX TEMP:  94;

MESA-GATEWAY   MOSUNNY   93  55  27 CALM      29.98F
CHANDLER       MOSUNNY   95  57  28 VRB6      29.95F
$$

AZZ027-028-281900-
SOUTHWEST MARICOPA COUNTY AND PINAL COUNTY

CITY           SKY/WX    TMP DP  RH WIND       PRES   REMARKS
CASA GRANDE    SUNNY     95  57  28 CALM      29.97F
6HR MIN TEMP:  73; 6HR MAX TEMP:  95;

GILA BEND      CLEAR     97  52  21 NE7G13    29.95F
$$

AZZ503-504-507>509-281900-
SOUTHEAST ARIZONA

CITY           SKY/WX    TMP DP  RH WIND       PRES   REMARKS
TUCSON         SUNNY     93  55  27 NW8       30.05F
6HR MIN TEMP:  74; 6HR MAX TEMP:  93;

DAVIS-MONTHAN  SUNNY     90  56  31 SW5       30.03F
6HR MIN TEMP:  71; 6HR MAX TEMP:  90;

NOGALES        SUNNY     88  53  30 NE5       30.13F
6HR MIN TEMP:  60; 6HR MAX TEMP:  88;

SIERRA VISTA   MOSUNNY   82  48  30 NE8       30.20F
SAFFORD        SUNNY     88  52  29 W9        30.06F
6HR MIN TEMP:  67; 6HR MAX TEMP:  89;

$$

AZZ020-021-025-026-031-281900-
SOUTHWEST ARIZONA

CITY           SKY/WX    TMP DP  RH WIND       PRES   REMARKS
YUMA           MOSUNNY  104  46  14 VRB7      29.88F HX 100
6HR MIN TEMP:  84; 6HR MAX TEMP: 104;

$$

CAZ031-033-041-043-047-048-061-281900-
SOUTHERN CALIFORNIA

CITY           SKY/WX    TMP DP  RH WIND       PRES   REMARKS
DOWNTOWN L.A.  SUNNY     88  53  30 CALM      29.97F
6HR MIN TEMP:  68; 6HR MAX TEMP:  88;

L.A. AIRPORT   SUNNY     82  54  37 W8        29.99F
6HR MIN TEMP:  69; 6HR MAX TEMP:  82;

SAN DIEGO      SUNNY     83  58  42 W10       29.98F
6HR MIN TEMP:  72; 6HR MAX TEMP:  84;

BURBANK        SUNNY     88  47  24 CALM      30.00F
6HR MIN TEMP:  69; 6HR MAX TEMP:  88;

ONTARIO        SUNNY     88  50  27 VRB3      30.01F
6HR MIN TEMP:  69; 6HR MAX TEMP:  89;

RIVERSIDE      SUNNY     89  51  27 VRB5      30.00F
6HR MIN TEMP:  67; 6HR MAX TEMP:  89;

PALM SPRINGS   SUNNY    102  43  13 CALM      29.92F
6HR MIN TEMP:  79; 6HR MAX TEMP: 102;

EL CENTRO NAS  SUNNY    104  49  15 NW8       29.87F HX 101
6HR MIN TEMP:  78; 6HR MAX TEMP: 104;

IMPERIAL       SUNNY    101  51  18 NW8       29.87F
6HR MIN TEMP:  77; 6HR MAX TEMP: 101;

BLYTHE         SUNNY    101  42  13 N8        29.91F
6HR MIN TEMP:  79; 6HR MAX TEMP: 101;

$$

NVZ020-UTZ003-281900-
SOUTHERN NEVADA-UTAH

CITY           SKY/WX    TMP DP  RH WIND       PRES   REMARKS
LAS VEGAS      NOT AVBL
SALT LAKE CITY MOSUNNY   76  49  38 SW9       30.21F
6HR MIN TEMP:  59; 6HR MAX TEMP:  77;

$$

NMZ009-TXZ055-281900-
NEW MEXICO-WEST TEXAS

CITY           SKY/WX    TMP DP  RH WIND       PRES   REMARKS
ALBUQUERQUE    MOSUNNY   75  43  31 N8        30.22F
6HR MIN TEMP:  59; 6HR MAX TEMP:  76;

EL PASO        MOSUNNY   84  57  39 CALM      30.10F
6HR MIN TEMP:  69; 6HR MAX TEMP:  84;

$$


........................KEY........................
SKY/WX - SKY CONDITION/WEATHER
TMP    - TEMPERATURE IN FAHRENHEIT
DP     - DEW POINT IN FAHRENHEIT
RH     - RELATIVE HUMIDITY IN PERCENT
WIND   - DIRECTION AND SPEED IN MILES PER HOUR (MPH)
VRB    - VARIABLE WIND DIRECTION
PRES   - MEAN SEA LEVEL PRESSURE IN INCHES OF MERCURY
         F - FALLING PRESSURE   R - RISING PRESSURE
         S - STEADY PRESSURE
VSB    - VISIBILITY IN MILES
HX     - HEAT INDEX IN FAHRENHEIT
WCI    - WIND CHILL INDEX IN FAHRENHEIT
TC     - TEMPERATURE IN CELSIUS WHICH IS ALSO KNOWN AS
         TEMPERATURE IN CENTIGRADE
AFB    - AIR FORCE BASE
         LUKE AFB IS LUKE AIR FORCE BASE
         DAVIS-MONTHAN IS DAVIS-MONTHAN AIR FORCE BASE
NAS    - NAVAL AIR STATION
         EL CENTRO NAS IS EL CENTRO NAVAL AIR STATION
N/A    - NOT AVAILABLE



USA.gov is the U.S. government's official web portal to all federal, state and local government web resources and services.